User: anonymous   Login
Location: Unspecified
(0.0000°N, 0.0000°E)
Time: 00:09:06
(UTC+02:00)
Language:

Cosmos 1263 Rocket - Orbit

View from above orbital plane
View from above orbital plane
View from above satellite
View from above satellite

Ground track
Ground track

The orbit data is extracted from the following two-line orbital elements,

1 12389U 81033B   15124.11926841  .00141092  50398-5  61247-3 0  9993
2 12389 082.8555 150.1953 0084082 014.3081 041.0436 15.79313822759416
Epoch (UTC): 04 May 2015 02:51:44
Eccentricity: 0.0084082
inclination: 82.8555°
perigee height: 276 km
apogee height: 389 km
right ascension of ascending node: 150.1953°
argument of perigee: 14.3081°
revolutions per day: 15.79313822
mean anomaly at epoch: 41.0436°
orbit number at epoch: 75941

The dashed part of the orbit path shows where the satellite is in the earth's shadow,  

DLR